Scottsdale, AZ

4:30 PM MST on September 25, 2017 (GMT -0700)
Scottsdale

Weather History for KSDL - January, 2013

Change the Weather History Date:

Tuesday, January 8, 2013

  Actual Average Record
Temperature  
Mean Temperature 52 °F -  
Max Temperature 66 °F 63 °F 78 °F (2002)
Min Temperature 39 °F 42 °F 33 °F (1997)
Degree Days  
Heating Degree Days 12    
Growing Degree Days 2 (Base 50)    
Moisture  
Dew Point 24 °F    
Average Humidity 38    
Maximum Humidity 62    
Minimum Humidity 16    
Precipitation  
Precipitation 0.00 in - - ()
Sea Level Pressure  
Sea Level Pressure 29.99 in    
Wind  
Wind Speed 2 mph (West)    
Max Wind Speed 6 mph    
Max Gust Speed -    
Visibility 10 miles    
Events      
Averages and records for this station are not official NWS values.
T = Trace of Precipitation, MM = Missing Value Source: NWS Daily Summary

Daily Weather History Graph

Daily Weather History Graph

Search for Another Location

Airport or City:

Trip Planner

Search our weather history database for the weather conditions in past years. The results will help you decide how hot, cold, wet, or windy it might be!

Date:

Astronomy

Jan. 08, 2013 Rise Set
Actual Time 7:32 AM MST 5:36 PM MST
Civil Twilight 7:05 AM MST 6:03 PM MST
Nautical Twilight 6:34 AM MST 6:34 PM MST
Astronomical Twilight 6:04 AM MST 7:04 PM MST
Moon 4:10 AM MST (1/8) 2:41 PM MST (1/8)
Length of Visible Light 10h 58m
Length of Day
10h 03m
Waning Crescent, 13% of the Moon is Illuminated
Jan 8
Waning Crescent
Jan 11
New
Jan 18
First Quarter
Jan 26
Full
Feb 3
Last Quarter

Hourly Weather History & Observations

Time (MST) Temp. Windchill Dew Point Humidity Pressure Visibility Wind Dir Wind Speed Gust Speed Precip Events Conditions
12:53 AM 46.0 °F 43.1 °F 25.0 °F 44% 29.89 in 10.0 mi WNW 5.8 mph - N/A   Clear
1:53 AM 43.0 °F 41.3 °F 27.0 °F 53% 29.90 in 10.0 mi NE 3.5 mph - N/A   Clear
2:53 AM 44.1 °F - 25.0 °F 47% 29.91 in 10.0 mi Calm Calm - N/A   Clear
3:53 AM 39.0 °F - 27.0 °F 62% 29.90 in 10.0 mi Calm Calm - N/A   Clear
4:53 AM 39.9 °F 37.8 °F 26.1 °F 58% 29.92 in 10.0 mi ENE 3.5 mph - N/A   Clear
5:53 AM 39.0 °F - 25.0 °F 57% 29.94 in 10.0 mi Calm Calm - N/A   Clear
6:53 AM 39.0 °F - 26.1 °F 60% 29.97 in 10.0 mi Calm Calm - N/A   Clear
7:53 AM 39.0 °F - 26.1 °F 60% 29.99 in 9.0 mi Calm Calm - N/A   Clear
8:53 AM 45.0 °F - 27.0 °F 49% 30.02 in 10.0 mi Calm Calm - N/A   Clear
9:53 AM 50.0 °F - 25.0 °F 38% 30.04 in 10.0 mi Calm Calm - N/A   Clear
10:53 AM 53.1 °F - 21.9 °F 30% 30.04 in 10.0 mi SW 3.5 mph - N/A   Clear
11:53 AM 57.0 °F - 23.0 °F 27% 30.01 in 10.0 mi SSW 4.6 mph - N/A   Clear
12:53 PM 60.1 °F - 23.0 °F 24% 30.00 in 10.0 mi Calm Calm - N/A   Clear
1:53 PM 63.0 °F - 19.9 °F 19% 29.98 in 10.0 mi WSW 4.6 mph - N/A   Clear
2:53 PM 64.9 °F - 19.9 °F 18% 29.96 in 10.0 mi Calm Calm - N/A   Clear
3:53 PM 66.0 °F - 18.0 °F 16% 29.97 in 10.0 mi SSW 3.5 mph - N/A   Clear
4:53 PM 64.9 °F - 19.9 °F 18% 29.98 in 10.0 mi West 3.5 mph - N/A   Clear
5:53 PM 62.1 °F - 19.9 °F 20% 29.99 in 10.0 mi Calm Calm - N/A   Clear
6:53 PM 57.9 °F - 21.9 °F 25% 30.02 in 10.0 mi Calm Calm - N/A   Clear
7:53 PM 57.0 °F - 23.0 °F 27% 30.04 in 10.0 mi North 4.6 mph - N/A   Clear
8:53 PM 53.1 °F - 24.1 °F 32% 30.06 in 10.0 mi Calm Calm - N/A   Clear
10:53 PM 48.9 °F - 27.0 °F 43% 30.09 in 10.0 mi Calm Calm - N/A   Clear
11:53 PM 48.0 °F - 25.0 °F 41% 30.09 in 10.0 mi Calm Calm - N/A   Clear